GFSFLT1_sfc_rhum_060.txt.gz
RH
36 25 25 28 34 37 41 40 44 50 67 74 73 74 74 76 76 62 62 68 58 66 56 59 70 72 75 77 78 79 81 79 77
54 60 46 28 32 34 40 41 45 51 64 71 72 68 75 74 75 72 61 71 70 60 68 58 68 70 73 73 75 77 85 79 85
52 54 62 54 28 32 36 37 40 45 55 68 70 70 70 69 68 72 70 66 74 68 67 66 75 73 72 72 74 75 81 77 79
50 45 66 88 68 28 32 35 38 41 47 63 68 68 70 70 69 65 67 67 66 72 67 74 71 71 72 73 73 75 80 80 76
33 42 60 75 80 51 30 34 36 40 42 46 59 66 69 69 69 68 65 65 67 69 71 69 75 74 75 73 72 74 77 77 66
30 43 49 56 58 52 29 31 36 35 40 40 47 61 62 64 66 68 67 67 63 68 71 74 65 73 76 75 72 74 75 77 75
13 32 52 44 38 42 30 34 39 40 37 37 40 50 56 64 66 64 64 68 67 68 71 72 72 72 74 73 72 70 69 73 76
16 16 23 19 25 36 36 40 43 42 38 40 39 48 53 60 65 65 67 68 70 65 68 71 73 74 73 73 68 58 70 70 73
46 20 16 22 27 32 42 42 44 44 43 41 43 51 52 59 66 69 69 70 71 73 71 72 74 75 74 74 60 68 75 71 67
62 39 27 38 34 33 63 77 66 45 46 43 48 53 54 60 66 70 71 70 71 75 75 73 77 76 75 76 74 76 77 78 62
62 57 42 42 34 38 43 83 85 39 42 53 54 56 58 60 63 67 70 72 73 74 73 75 76 76 77 76 72 82 81 80 67
78 78 60 46 40 40 50 47 46 45 41 49 51 56 58 61 60 66 69 73 74 72 72 74 74 73 77 79 76 87 84 84 70
61 80 57 58 56 54 51 51 44 46 43 48 54 53 56 58 62 64 70 72 75 73 72 72 67 70 73 78 77 91 88 83 62
58 61 68 64 65 66 65 59 50 55 52 49 51 52 52 61 64 66 70 75 74 75 74 72 76 74 72 75 77 78 92 90 70
67 67 72 74 77 78 73 72 63 62 64 57 57 59 59 63 66 59 57 77 77 76 77 80 80 80 74 67 74 91 98 92 86
70 74 81 79 84 85 84 83 83 78 67 65 62 66 67 66 68 67 67 74 79 76 79 74 76 70 73 67 64 70 93 96 93
77 81 86 80 82 86 91 87 82 81 83 75 68 64 73 69 71 72 69 64 69 71 72 74 70 69 68 67 63 60 66 81 86
87 89 90 86 88 92 89 89 87 81 82 83 67 67 66 68 65 73 73 66 70 69 68 67 68 63 61 62 62 57 66 74 74
92 92 90 91 89 91 92 84 88 86 84 90 85 70 65 62 61 65 67 67 81 99 96 100 93 98 66 80 94 100 99 98 92
92 90 90 92 91 90 93 94 90 89 86 86 91 94 79 63 66 61 69 70 73 76 93 100 100 100 100 100 99 100 100 100 100

GFSFLT1_sfc_rhum_063.txt.gz
RH
51 61 47 39 40 38 40 50 56 60 66 72 74 71 73 82 90 71 84 81 78 66 68 64 79 81 84 86 88 85 90 88 90
52 65 75 56 40 39 39 46 52 59 67 66 73 73 67 76 90 76 79 75 79 73 70 68 78 82 80 85 87 88 87 89 92
66 76 79 82 75 50 46 39 48 52 65 68 70 70 70 65 72 85 82 76 80 75 67 71 79 80 76 83 86 84 89 86 89
59 64 78 82 84 72 68 54 42 50 63 67 69 68 72 67 64 74 81 82 70 81 73 82 79 82 87 84 82 88 91 86 87
53 58 59 77 75 73 74 70 41 44 53 66 67 69 66 72 68 65 71 78 84 67 78 81 79 77 78 83 84 87 88 87 77
47 48 59 56 59 60 48 59 53 41 45 60 64 66 69 70 72 68 63 63 78 73 82 75 84 81 78 78 79 84 88 88 87
52 51 56 54 43 46 42 39 49 40 42 45 61 66 69 72 70 71 63 60 60 80 66 88 75 86 80 87 78 82 85 85 89
55 62 56 54 44 47 81 56 65 46 40 42 47 63 68 69 69 67 69 66 68 60 75 64 84 78 90 80 82 73 85 85 86
58 81 79 75 61 62 59 57 60 56 40 43 43 54 64 66 67 69 70 71 71 69 64 74 65 74 80 88 70 79 83 77 86
79 78 80 76 69 84 78 82 77 80 68 48 45 48 59 62 66 70 71 71 72 79 67 69 80 72 74 78 78 84 84 83 67
80 84 84 84 82 75 76 89 91 97 94 88 78 54 54 62 66 69 71 69 73 71 72 66 64 73 77 78 75 88 86 82 68
72 77 80 83 82 84 84 70 84 84 81 86 84 64 59 62 62 69 71 71 71 68 70 72 68 70 75 79 77 92 90 84 72
68 71 69 79 80 76 80 75 85 87 83 88 71 54 56 60 62 65 69 70 67 67 65 65 71 68 72 80 77 91 92 88 68
64 72 76 78 82 82 80 87 92 96 88 66 81 67 62 61 62 61 65 66 67 66 68 68 68 73 70 74 80 77 96 94 72
69 73 79 76 84 86 78 86 92 94 96 93 80 68 79 71 66 59 63 68 68 69 69 72 73 73 75 71 72 90 97 96 94
71 75 81 80 85 84 80 82 86 92 90 90 88 86 78 80 70 66 58 72 71 74 72 73 75 76 76 74 70 72 95 98 95
77 82 88 86 92 84 89 82 80 82 84 88 92 95 77 74 68 68 61 69 69 71 73 76 74 76 76 74 71 71 73 92 96
84 92 92 92 95 89 87 87 88 82 84 88 90 92 85 78 64 74 67 64 72 71 68 71 73 72 71 72 78 70 76 86 87
93 96 93 95 94 92 90 86 88 84 91 94 95 96 93 75 65 72 68 70 98 100 96 99 97 93 77 70 91 86 90 99 100
94 92 94 93 95 92 92 92 89 85 93 95 95 98 97 97 82 73 75 77 73 93 100 100 100 100 94 96 100 100 100 100 100

GFSFLT1_sfc_rhum_069.txt.gz
RH
65 59 56 50 44 51 53 54 59 69 73 70 74 76 82 84 80 78 85 88 85 83 81 85 87 92 91 93 91 92 94 96 96
70 61 56 49 43 46 52 55 57 66 72 68 71 72 75 87 81 81 82 90 88 83 81 80 88 90 90 91 93 93 94 97 94
66 66 64 56 45 47 48 50 54 59 66 68 68 68 68 75 84 86 86 86 91 88 86 84 89 92 92 90 92 93 94 96 94
65 56 60 67 55 44 48 48 50 56 63 66 68 66 66 65 72 89 96 87 84 88 88 87 86 92 92 91 91 94 96 95 93
66 55 62 71 70 64 62 61 56 60 57 64 66 66 66 66 66 75 89 90 86 84 84 87 85 87 94 90 87 92 95 95 90
80 79 82 84 83 90 85 81 77 78 71 70 66 67 67 67 66 67 71 83 94 85 84 84 89 92 92 90 85 88 90 91 94
85 91 92 94 93 90 88 81 76 78 72 67 72 66 70 70 69 66 64 65 80 92 83 83 86 96 92 91 87 84 84 91 95
83 89 90 91 92 90 90 88 76 69 72 74 72 71 69 71 70 67 64 64 64 77 92 80 79 83 96 91 87 82 85 87 91
84 87 86 90 93 90 87 88 93 92 85 79 70 67 72 70 70 74 72 69 66 65 71 84 87 82 78 91 80 84 88 84 84
87 90 91 92 93 95 96 95 93 96 96 88 83 69 70 71 77 78 79 75 72 67 66 66 70 79 85 78 80 89 88 88 74
86 91 93 94 91 94 94 94 90 93 96 96 88 85 71 70 73 80 82 80 81 73 67 68 67 65 67 79 74 89 90 89 81
72 84 91 95 92 91 92 92 93 94 95 95 89 85 91 82 74 79 78 80 80 80 76 73 72 66 66 68 69 93 92 92 81
69 71 76 89 86 84 86 90 95 96 95 95 96 96 97 94 86 85 83 81 79 77 86 76 75 74 69 72 69 83 96 95 79
69 72 70 82 88 88 80 88 93 96 95 97 95 93 91 95 96 96 91 78 76 77 77 77 79 80 75 71 74 75 92 96 82
79 80 77 76 92 93 85 87 93 95 96 93 94 92 96 96 96 97 85 78 71 74 76 80 80 81 80 76 70 87 95 96 96
88 84 82 80 94 92 84 81 85 93 90 91 94 96 95 94 94 92 95 96 74 72 74 75 82 83 79 78 74 72 94 97 98
92 85 88 93 97 98 96 90 91 90 84 82 93 97 97 96 92 92 89 96 98 94 94 91 93 90 89 92 78 78 74 93 98
95 92 91 93 99 94 94 94 94 91 85 86 90 93 96 97 97 97 95 93 95 91 82 80 87 74 87 87 79 71 83 82 87
95 93 93 94 95 97 92 95 96 93 94 96 95 95 90 97 98 98 97 95 92 100 96 99 96 96 82 77 83 94 99 100 100
90 94 95 97 95 92 91 95 96 96 95 96 97 97 95 96 98 95 98 98 96 97 97 100 100 100 100 99 86 100 100 100 100

GFSFLT1_sfc_rhum_072.txt.gz
RH
62 63 59 55 52 55 60 61 64 67 74 77 81 84 86 88 88 83 86 85 86 87 87 86 88 89 89 90 90 88 91 87 87
74 72 62 59 52 54 58 59 64 69 73 72 76 78 83 88 86 87 86 89 87 85 88 80 86 89 89 89 90 90 92 88 90
76 77 73 63 57 52 55 54 57 64 68 70 72 73 77 79 82 84 84 87 89 89 87 86 89 89 90 90 92 90 92 91 90
88 75 74 67 63 50 52 53 55 59 65 70 70 72 75 78 83 86 86 82 85 87 88 89 88 90 88 90 91 92 95 92 90
87 86 75 75 78 74 70 71 61 68 63 66 66 72 75 77 82 86 88 84 84 86 87 89 88 88 90 89 88 90 90 90 85
84 88 91 92 88 90 85 79 77 79 75 73 68 78 71 73 76 81 85 86 88 87 84 86 85 88 89 90 88 90 89 88 88
76 85 89 92 94 94 95 92 86 82 76 83 80 70 70 74 75 74 74 80 87 87 85 84 84 85 86 87 88 87 87 87 87
78 84 85 89 93 95 96 95 95 90 78 79 82 74 73 74 74 75 76 78 82 85 86 82 82 84 86 86 86 79 88 87 87
86 88 86 87 87 89 90 96 95 93 94 88 73 74 72 75 78 80 80 80 81 84 87 86 87 84 83 86 76 88 91 88 86
77 80 85 89 89 90 93 94 94 95 94 94 92 80 82 84 81 83 83 81 81 81 81 85 87 85 83 84 84 89 92 92 82
72 74 78 84 90 90 90 92 90 92 94 93 90 87 86 82 83 82 85 84 84 83 78 79 83 84 85 82 78 89 92 90 83
73 75 76 81 81 90 88 88 89 93 94 94 93 94 95 91 80 83 84 87 89 87 81 79 77 75 82 84 80 88 91 92 81
72 71 69 75 74 80 85 79 92 95 95 93 94 94 93 93 92 93 86 90 89 94 88 82 74 75 77 79 78 86 91 92 75
71 73 74 76 80 82 86 87 92 94 95 95 92 93 94 93 95 97 97 95 94 96 95 94 86 83 81 81 80 78 90 95 80
76 77 77 78 82 85 84 90 92 94 95 92 93 93 93 95 95 93 96 96 97 90 88 95 94 90 85 80 81 88 92 93 96
71 72 75 77 82 84 82 86 90 92 92 91 91 94 94 93 95 94 94 96 94 93 93 85 90 86 84 82 80 79 93 95 94
72 71 81 77 80 87 91 84 88 90 87 86 91 94 94 95 94 97 94 93 98 96 95 96 88 86 84 82 81 79 81 82 88
77 88 86 87 88 86 88 88 92 89 87 85 86 89 94 96 94 96 92 93 91 93 87 89 92 83 83 92 86 79 95 94 92
87 90 88 90 87 87 86 88 88 87 89 89 89 88 85 95 98 96 93 94 92 97 100 100 100 100 91 84 94 98 100 100 100
89 88 91 93 92 90 89 92 87 84 90 91 91 94 91 93 96 95 96 96 94 97 87 100 100 100 100 100 99 100 100 100 100

GFSFLT1_sfc_rhum_075.txt.gz
RH
40 46 44 44 44 45 50 52 56 57 65 74 71 71 77 77 75 60 58 65 56 58 56 57 66 71 69 74 75 71 73 64 61
67 50 42 45 44 44 48 51 56 59 65 69 68 65 72 76 75 73 63 68 68 56 65 54 66 67 70 69 73 74 74 62 81
79 68 58 46 44 44 45 46 49 54 57 66 67 64 65 64 68 70 69 69 72 67 63 68 64 68 68 71 72 74 77 68 70
86 68 58 53 47 42 45 46 46 49 53 61 61 61 64 64 63 64 68 67 68 70 68 71 71 72 69 69 70 73 78 76 70
80 80 76 67 61 48 47 50 48 48 52 53 56 62 66 71 66 64 63 68 66 67 71 69 70 72 73 70 69 72 75 73 65
80 80 82 83 79 82 72 55 49 45 55 46 47 62 62 71 71 69 64 66 65 68 69 69 64 68 73 72 70 72 73 72 72
74 79 82 85 86 90 91 84 82 65 55 46 48 48 54 67 73 72 63 66 69 67 70 70 68 68 69 68 68 69 68 70 72
64 70 72 78 83 86 90 90 86 80 73 72 60 57 54 58 65 69 73 72 70 68 70 68 67 68 67 66 61 54 68 69 70
53 55 58 63 73 79 79 86 86 85 86 83 82 75 62 62 66 69 70 73 72 73 71 72 70 68 68 67 53 66 83 73 64
47 48 53 59 63 70 81 85 87 87 91 90 85 80 76 68 70 71 74 71 73 74 76 72 75 71 68 71 68 80 88 92 57
51 50 52 55 53 57 62 69 78 83 89 91 83 78 77 74 73 72 72 74 74 77 71 74 74 72 74 74 66 84 90 93 70
52 51 47 50 48 52 59 58 65 76 86 91 89 85 84 82 83 75 73 74 76 74 73 73 71 68 74 77 75 87 90 90 66
50 49 48 51 50 51 50 57 59 69 67 73 78 87 90 89 83 87 82 75 78 75 76 72 63 66 68 74 74 90 90 87 57
49 49 52 53 52 57 57 56 61 71 70 69 71 72 80 88 87 92 91 90 87 81 80 79 76 74 72 73 73 74 93 92 68
53 52 52 51 53 56 54 55 60 69 74 74 75 74 74 80 86 88 88 95 96 93 94 93 90 84 76 66 72 92 92 92 94
52 52 53 51 53 59 57 56 60 69 70 73 76 78 83 74 80 83 93 97 94 83 78 74 77 74 78 70 61 64 97 94 92
55 53 54 51 56 60 63 60 60 63 68 73 74 76 78 78 74 77 79 82 84 97 88 68 65 78 73 68 65 63 62 70 83
63 68 64 61 63 62 64 63 63 60 63 73 72 69 67 68 66 68 70 70 70 68 78 93 85 90 85 78 71 64 75 74 66
85 83 80 80 78 79 77 73 72 66 65 77 73 68 62 59 61 70 64 70 63 84 98 100 100 100 97 81 94 99 100 100 100
82 83 87 90 90 79 82 86 89 79 79 80 78 73 71 62 65 59 62 62 78 82 72 95 96 100 100 100 99 100 100 100 100

GFSFLT1_sfc_rhum_078.txt.gz
RH
31 35 34 34 35 35 38 38 40 44 51 64 64 62 67 67 67 52 49 51 42 41 40 42 51 59 55 57 57 58 62 51 48
60 36 35 34 33 34 36 39 42 46 51 59 60 56 62 66 66 65 50 53 52 43 50 39 50 55 57 55 56 59 63 49 57
76 46 47 34 34 34 34 35 37 42 45 53 56 54 54 55 59 63 61 57 59 56 47 53 48 57 56 58 58 60 65 53 57
84 83 66 60 40 36 34 34 35 37 42 47 51 53 55 55 52 54 59 56 57 59 55 55 58 60 62 61 57 58 66 64 55
80 81 86 88 86 54 36 37 36 36 37 40 44 52 60 58 60 54 51 57 55 57 60 56 58 60 67 56 56 58 66 61 51
76 77 79 84 85 92 89 80 48 37 38 35 38 50 52 55 55 54 54 53 56 57 59 59 51 56 65 63 54 59 61 62 60
61 65 71 74 80 88 91 91 86 78 51 39 36 37 44 58 54 56 58 53 56 56 59 61 58 56 58 59 58 56 60 59 62
48 51 54 59 66 74 83 82 84 82 80 72 55 50 43 46 52 57 56 65 58 56 58 59 60 58 56 57 52 44 59 58 57
41 42 42 44 47 52 59 67 74 83 87 88 76 67 60 55 54 56 61 64 76 62 60 62 62 61 57 56 41 58 75 65 53
40 38 38 40 38 40 44 51 59 71 81 80 81 80 67 67 66 64 65 63 65 67 66 63 66 63 60 61 58 71 79 80 49
46 43 40 38 32 36 39 36 47 63 70 78 80 83 86 87 80 73 75 75 72 68 65 66 65 64 66 64 58 78 81 84 58
42 40 37 37 34 36 42 40 41 48 56 57 78 76 83 83 87 87 82 75 79 76 76 70 64 62 66 69 68 85 86 85 56
38 37 36 39 38 34 36 42 37 43 42 51 57 61 76 81 81 93 90 84 91 88 76 70 62 60 61 68 67 86 90 85 51
39 39 40 41 41 40 42 42 41 48 49 48 53 55 58 63 77 89 91 96 90 93 92 86 78 67 67 67 65 67 94 93 62
42 41 40 38 41 42 42 44 45 51 55 54 57 58 60 64 65 62 75 87 93 93 87 92 92 92 92 64 68 88 90 95 94
43 44 44 41 41 45 46 47 50 55 57 58 60 61 63 61 62 60 59 66 78 94 93 80 82 94 97 94 59 53 93 95 94
46 48 53 49 51 51 54 53 53 54 56 55 58 62 64 57 55 57 57 48 46 49 57 68 62 54 94 93 91 80 45 71 85
51 57 58 61 63 66 70 70 65 58 61 57 54 56 54 53 44 47 51 51 46 48 50 57 70 81 76 81 85 86 97 99 89
67 66 61 62 66 67 64 61 62 61 68 79 77 63 48 42 43 43 41 43 45 61 78 88 94 98 98 70 82 100 100 100 100
61 60 63 69 74 68 68 68 68 63 64 71 79 74 66 53 52 44 45 45 45 46 45 73 83 88 94 98 97 100 100 100 100

GFSFLT1_sfc_rhum_084.txt.gz
RH
61 54 85 81 40 46 47 40 44 52 69 76 73 71 75 77 77 67 64 69 68 73 90 86 78 77 74 73 75 72 76 78 75
58 68 62 64 51 44 43 41 45 52 68 72 72 68 74 77 77 76 67 71 72 63 76 87 76 87 73 71 70 75 80 84 79
77 86 90 92 89 91 40 40 39 46 61 68 68 65 68 68 72 75 75 76 72 71 74 82 94 89 85 73 74 74 79 79 79
82 88 94 96 96 94 85 56 48 40 54 62 63 64 66 67 68 68 72 71 70 71 70 78 89 83 85 75 74 77 82 80 74
76 82 89 92 94 98 95 90 84 80 70 44 53 59 66 66 68 67 67 72 70 72 75 72 73 78 75 77 74 78 79 75 67
72 73 78 86 90 95 97 94 96 88 82 78 73 56 56 59 62 63 65 70 69 72 74 75 67 71 77 77 73 75 77 80 76
65 66 68 71 79 90 95 93 95 92 86 86 82 88 92 62 62 62 62 71 74 69 73 74 74 73 73 72 73 71 71 76 79
52 54 56 59 61 70 82 91 96 95 91 88 89 87 89 95 94 74 69 75 74 75 71 71 74 74 72 72 66 55 70 71 73
47 47 46 47 49 52 61 71 91 95 94 93 91 89 89 90 90 92 90 82 77 77 76 76 75 74 74 73 54 62 75 71 66
43 41 41 43 42 44 45 50 62 80 84 87 90 85 82 85 87 90 90 90 88 86 84 82 78 76 76 75 74 77 79 81 65
42 40 39 38 36 39 41 36 42 61 66 82 84 87 79 80 84 87 87 90 91 91 94 91 89 81 80 78 71 84 81 82 75
37 37 36 35 33 38 48 39 44 52 56 60 59 63 74 80 82 86 88 87 92 94 95 94 90 86 84 83 81 87 89 89 86
32 32 35 35 34 32 38 43 38 45 44 54 58 59 63 65 68 72 74 85 89 94 94 94 94 87 89 85 82 89 91 92 73
33 33 34 33 35 38 42 43 42 53 53 55 56 57 58 63 66 71 70 74 80 84 86 92 86 87 90 89 89 84 96 94 89
33 35 35 34 38 42 42 47 51 57 66 65 65 64 64 67 69 60 56 74 75 75 78 84 86 85 82 89 90 98 99 100 100
37 41 44 41 44 49 54 57 57 61 68 67 68 69 72 70 67 65 68 73 72 65 69 64 73 69 70 71 72 86 100 100 100
40 46 51 47 50 53 59 62 60 61 64 66 67 71 71 66 65 65 64 55 49 51 48 51 56 58 58 56 68 94 95 95 95
48 51 51 53 56 56 58 60 62 58 62 65 64 65 63 61 52 57 59 56 52 51 59 51 50 53 52 54 55 68 88 90 88
51 53 53 56 56 56 59 58 59 62 62 64 63 62 57 57 55 52 50 52 51 56 68 69 74 76 68 52 67 75 80 91 100
57 51 53 56 59 58 60 62 60 60 62 62 64 61 61 53 55 52 54 54 53 53 51 60 64 71 78 82 76 82 85 87 90

GFSFLT1_sfc_rhum_087.txt.gz
RH
71 79 79 84 75 64 61 48 60 64 82 86 88 86 86 89 88 90 82 80 88 84 88 91 86 85 86 87 84 83 84 87 87
72 74 78 78 68 77 68 52 59 65 75 80 80 83 90 91 90 88 81 76 88 75 88 87 86 89 86 79 84 83 88 91 89
88 85 79 77 77 88 93 84 55 63 72 76 79 81 83 88 93 89 89 88 84 84 87 81 84 88 85 87 85 86 85 87 88
92 96 96 92 91 97 95 94 80 75 76 75 77 75 82 87 86 88 90 88 86 83 86 91 92 89 81 85 86 84 90 89 82
90 93 96 98 98 98 98 98 96 96 96 94 92 70 74 77 84 83 85 89 84 84 83 92 88 79 80 84 87 88 87 83 76
86 89 94 96 97 98 98 98 97 96 97 97 95 97 89 90 87 76 76 81 84 82 85 82 85 85 88 89 81 83 88 86 83
76 82 88 94 96 97 97 97 99 96 96 98 96 97 96 96 97 97 84 90 85 85 85 86 84 85 82 85 83 83 84 87 87
68 72 76 86 94 94 94 96 96 96 97 96 97 97 97 96 97 97 94 91 91 90 90 84 85 85 86 89 80 71 84 85 86
58 60 63 64 72 78 90 96 98 95 96 97 95 96 97 96 97 98 98 97 97 92 86 88 89 88 87 85 71 77 81 79 77
54 52 56 56 56 63 68 79 91 96 97 93 95 96 97 95 98 97 98 97 97 98 99 97 92 90 89 90 91 85 82 85 78
53 53 55 56 57 58 55 58 68 88 90 91 93 92 89 89 91 94 96 97 97 96 98 98 98 96 94 94 92 93 94 94 89
55 53 52 54 59 61 63 58 60 64 69 64 61 66 78 84 86 89 90 94 98 98 97 95 95 96 96 97 95 94 95 98 96
49 50 50 51 55 56 61 61 64 66 70 69 67 65 66 70 78 76 82 86 90 94 96 97 97 96 95 94 97 96 99 99 96
50 54 47 52 60 64 69 70 73 80 78 82 76 73 72 72 72 74 74 78 85 87 88 93 96 96 96 96 97 98 100 100 99
51 56 55 56 68 74 71 72 75 85 86 84 80 80 80 79 72 70 64 82 88 80 83 87 92 96 95 95 98 100 100 100 100
64 66 66 64 72 77 77 78 79 83 84 83 82 83 81 82 78 70 65 84 80 77 81 78 79 81 75 80 82 98 100 100 96
70 69 68 70 73 79 82 82 79 83 81 80 80 83 81 76 74 69 66 65 61 63 66 72 67 68 72 71 68 87 95 91 91
73 73 72 72 74 81 83 78 82 80 79 81 82 80 78 75 68 66 64 60 70 62 61 71 62 56 71 70 67 67 89 84 71
77 74 74 75 78 79 76 79 83 80 79 83 87 82 76 75 70 73 70 66 62 69 74 76 75 78 78 53 68 80 84 84 86
67 72 73 77 78 79 79 75 76 77 81 80 84 89 79 75 72 64 66 66 66 68 63 71 73 74 76 82 80 82 83 85 84